[[{"header":{"parameterUnit":"m.s-1","parameterCategory":1,"la1":30.2991,"la2":30.254,"lo1":-89.0895,"lo2":-89.0444,"dy":0.0017,"dx":0.0017,"nx":28,"ny":28,"refTime":"2023-10-25T21:00:00:Z","depth":0,"parameterNumber":2,"parameterNumberName":"U-component_of_WINDS"},"data":[0,0,0,0,0,0,0,0,0,0,0,0,0,0,0,0,0,0,0,0,0,0,0,0,0,0,0,0,0,0,0,0,0,0,0,0,0,0,0,0,0,0,0,0,0,0,0,0,0,0,0,0,0,0,0,0,0,0,-3.1467,-3.1468,0,-3.1555,-3.1556,-3.1557,-3.1516,-3.1513,-3.1511,-3.1509,-3.1601,-3.1605,-3.161,0,0,0,0,0,0,0,0,0,0,0,0,0,-3.1266,-3.127,-3.1467,-3.1468,-3.1469,-3.1555,-3.1556,-3.1558,-3.1516,-3.1513,-3.1511,-3.1508,-3.16,-3.1605,-3.161,0,0,0,0,0,0,0,0,0,0,0,0,0,-3.1354,-3.1271,-3.1467,-3.1459,-3.1459,-3.1555,-3.1556,-3.1558,-3.1517,-3.1513,-3.151,-3.1507,-3.1598,-3.1604,-3.1611,-3.1721,0,0,-3.1632,-3.1635,0,0,0,0,0,0,0,0,-3.1349,-3.1361,-3.1459,-3.1459,-3.146,-3.1521,-3.1519,-3.1613,-3.1518,-3.1495,-3.1509,-3.1505,-3.1577,-3.1586,-3.161,-3.1725,-3.1729,-3.1633,-3.1637,-3.164,-3.1641,0,0,0,0,0,0,0,-3.1343,-3.1357,-3.1502,-3.146,-3.1461,-3.1452,-3.1461,-3.1537,-3.1554,-3.1496,-3.1494,-3.1505,-3.1577,-3.1603,-3.1611,-3.173,-3.1632,-3.1638,-3.1643,-3.1645,-3.1945,-3.1948,0,0,0,0,0,0,-3.1337,-3.1353,-3.1499,-3.1504,-3.1395,-3.1459,-3.1468,-3.1505,-3.1553,-3.1557,-3.1507,-3.1502,-3.1593,-3.1603,-3.1614,-3.1748,-3.164,-3.1646,-3.165,-3.1941,-3.1945,-3.195,0,0,0,0,0,0,-3.1333,-3.135,-3.1495,-3.1428,-3.1446,-3.1466,-3.1507,-3.1508,-3.1534,-3.1561,-3.1564,-3.1531,-3.1591,-3.1605,-3.1695,-3.175,-3.1649,-3.1655,-3.1936,-3.1942,-3.1948,-3.2014,0,0,0,0,0,0,-3.1327,-3.1349,-3.1389,-3.1429,-3.1449,-3.1573,-3.151,-3.1512,-3.1546,-3.154,-3.1584,-3.1588,-3.1589,-3.1685,-3.1702,-3.1758,-3.166,-3.1931,-3.1939,-3.1946,-3.2007,-3.2021,-3.2033,0,0,0,0,0,-3.132,-3.1403,-3.1391,-3.1409,-3.15,-3.1576,-3.1588,-3.1588,-3.1551,-3.1592,-3.1611,-3.1586,-3.1742,-3.1695,-3.1713,-3.1772,-3.1928,-3.1937,-3.1945,-3.2001,-3.2018,-3.2033,0,0,0,0,0,0,-3.1368,-3.1408,-3.1395,-3.1494,-3.1532,-3.1569,-3.1621,-3.1606,-3.1655,-3.1648,-3.1646,-3.1657,-3.1751,-3.1771,-3.1717,-3.1883,-3.183,-3.1842,-3.1865,-3.1882,-3.1895,-3.1888,-3.1666,0,0,0,0,0,-3.139,-3.1448,-3.1481,-3.1565,-3.1585,-3.16,-3.1633,-3.1631,-3.167,-3.1686,-3.171,-3.1751,-3.1809,-3.1847,-3.1902,-3.2011,-3.2021,-3.2061,-3.2074,-3.2085,-3.2095,-3.2158,-3.2176,-3.1978,-3.1978,-3.1978,0,0,-3.1436,-3.1466,-3.1502,-3.1575,-3.1604,-3.1666,-3.1614,-3.168,-3.1726,-3.1696,-3.1783,-3.1804,-3.1849,-3.195,-3.1995,-3.1969,-3.2153,-3.2096,-3.2104,-3.2109,-3.2168,-3.2187,-3.2204,-3.1984,-3.1983,-3.1982,0,0,-3.1551,-3.1579,-3.1653,-3.1685,-3.1731,-3.1741,-3.176,-3.1801,-3.1813,-3.1901,-3.1881,-3.1937,-3.2037,-3.2071,-3.2101,-3.2237,-3.2217,-3.2255,-3.2323,-3.2384,-3.24,-3.2414,-3.2463,-3.248,-3.2266,-3.2266,-3.2266,0,-3.1602,-3.1692,-3.1693,-3.1762,-3.1796,-3.1775,-3.1851,-3.1882,-3.1944,-3.1969,-3.1939,-3.2067,-3.2096,-3.2206,-3.224,-3.2265,-3.2287,-3.2248,-3.2397,-3.2411,-3.2424,-3.2471,-3.249,-3.227,-3.227,-3.2269,-3.2269,0,-3.1754,-3.1818,-3.1873,-3.1934,-3.1975,-3.2048,-3.2061,-3.2103,-3.2099,-3.2114,-3.2206,-3.2241,-3.2304,-3.2331,-3.2326,-3.2442,-3.2424,-3.2397,-3.2342,-3.2447,-3.2492,-3.2509,-3.2276,-3.2275,-3.2273,-3.2272,0,0,-3.1895,-3.1961,-3.198,-3.201,-3.2062,-3.2112,-3.2187,-3.2249,-3.2286,-3.2332,-3.2394,-3.2483,-3.2459,-3.2494,-3.2494,-3.2547,-3.2655,-3.2513,-3.2515,-3.2539,-3.2787,-3.2806,-3.2827,-3.2644,-3.2648,-3.265,-3.2783,0,-3.2013,-3.2141,-3.2147,-3.2265,-3.2325,-3.2309,-3.2374,-3.2415,-3.2432,-3.2488,-3.2508,-3.2571,-3.2534,-3.2555,-3.2608,-3.263,-3.2704,-3.2621,-3.2703,-3.2706,-3.269,-3.285,-3.2869,-3.2993,-3.28,-3.2803,-3.2805,0,-3.2166,-3.2219,-3.2342,-3.2391,-3.2416,-3.2474,-3.2534,-3.2588,-3.2635,-3.2645,-3.2687,-3.2681,-3.276,-3.2706,-3.2816,-3.2759,-3.2794,-3.2812,-3.2816,-3.2822,-3.276,-3.2859,-3.3032,-3.305,-3.2833,-3.283,-3.2828,0,-3.2258,-3.2359,-3.2447,-3.2473,-3.2531,-3.2573,-3.2599,-3.2643,-3.2682,-3.2736,-3.2762,-3.2825,-3.2859,-3.2908,-3.2921,-3.288,-3.3032,-3.2978,-3.3043,-3.3042,-3.3072,-3.307,-3.3252,-3.3098,-3.3097,-3.3097,-3.3097,0,-3.2388,-3.2464,-3.2489,-3.2543,-3.263,-3.2638,-3.2724,-3.2748,-3.2789,-3.2849,-3.284,-3.2897,-3.2911,-3.2971,-3.2982,-3.3073,-3.3088,-3.3099,-3.3101,-3.3099,-3.3098,-3.312,-3.3111,-3.3102,-3.3101,-3.31,-3.3099,0,-3.2501,-3.2521,-3.2616,-3.2666,-3.268,-3.2742,-3.2785,-3.2838,-3.2857,-3.2934,-3.2952,-3.2982,-3.3054,-3.3072,-3.3157,-3.3165,-3.3272,-3.3266,-3.3255,-3.3255,-3.3318,-3.3312,-3.3519,-3.3548,-3.3376,-3.3378,-3.3379,0,-3.2582,-3.2641,-3.2698,-3.2738,-3.2766,-3.283,-3.2871,-3.2884,-3.2927,-3.299,-3.3036,-3.3107,-3.3163,-3.3279,-3.3309,-3.3376,-3.3371,-3.344,-3.338,-3.3378,-3.3372,-3.3368,-3.3374,-3.345,-3.3451,-3.3453,-3.3454,0,-3.2723,-3.2731,-3.279,-3.2854,-3.2904,-3.2955,-3.3003,-3.3037,-3.3058,-3.3107,-3.3181,-3.3225,-3.3314,-3.3385,-3.3454,-3.3483,-3.3473,-3.3474,-3.3492,-3.3489,-3.3481,-3.3486,-3.3285,-3.3468,-3.3466,-3.3465,-3.3464,-3.3464,-3.2822,-3.2875,-3.2924,-3.2992,-3.3031,-3.3078,-3.3132,-3.316,-3.3221,-3.3294,-3.3299,-3.338,-3.3432,-3.3522,-3.3556,-3.3621,-3.36,-3.3627,-3.3633,-3.3639,-3.3645,-3.3473,-3.3633,-3.3633,-3.3633,-3.3632,-3.3632,0,-3.2961,-3.2994,-3.3057,-3.3127,-3.3181,-3.317,-3.3225,-3.3271,-3.3342,-3.3391,-3.3449,-3.3536,-3.3606,-3.3645,-3.3716,-3.376,-3.3758,-3.3779,-3.3774,-3.3782,-3.3659,-3.3635,-3.378,-3.3779,-3.3779,-3.3779,-3.3779,-3.3779,-3.304,-3.313,-3.3146,-3.3257,-3.3289,-3.3368,-3.3401,-3.3446,-3.3486,-3.3583,-3.3642,-3.3668,-3.3714,-3.3789,-3.3855,-3.3865,-3.3891,-3.3914,-3.3922,-3.3805,-3.379,-3.3775,-3.3754,-3.392,-3.392,-3.4039,-3.404,-3.4041]},{"header":{"parameterUnit":"m.s-1","parameterCategory":1,"la1":30.2991,"la2":30.254,"lo1":-89.0895,"lo2":-89.0444,"dy":0.0017,"dx":0.0017,"nx":28,"ny":28,"refTime":"2023-10-25T21:00:00:Z","depth":0,"parameterNumber":3,"parameterNumberName":"V-component_of_WINDS"},"data":[0,0,0,0,0,0,0,0,0,0,0,0,0,0,0,0,0,0,0,0,0,0,0,0,0,0,0,0,0,0,0,0,0,0,0,0,0,0,0,0,0,0,0,0,0,0,0,0,0,0,0,0,0,0,0,0,0,0,0.8151,0.815,0,0.8071,0.807,0.8069,0.8012,0.8011,0.8011,0.8011,0.7924,0.7922,0.7921,0,0,0,0,0,0,0,0,0,0,0,0,0,0.8254,0.8252,0.8151,0.815,0.8149,0.8071,0.807,0.8069,0.8012,0.8011,0.8011,0.801,0.7925,0.7923,0.792,0,0,0,0,0,0,0,0,0,0,0,0,0,0.8195,0.8251,0.8151,0.8112,0.8107,0.8071,0.807,0.8068,0.8012,0.8011,0.8011,0.801,0.7926,0.7923,0.792,0.7916,0,0,0.7911,0.791,0,0,0,0,0,0,0,0,0.8198,0.8191,0.8118,0.8114,0.8109,0.8051,0.8074,0.8017,0.8012,0.8048,0.8011,0.801,0.7967,0.796,0.7947,0.7912,0.7908,0.7911,0.7909,0.7908,0.7907,0,0,0,0,0,0,0,0.8202,0.8194,0.8119,0.8117,0.8112,0.8097,0.8088,0.8063,0.8012,0.8045,0.8041,0.8032,0.7964,0.795,0.7944,0.7907,0.7911,0.7909,0.7907,0.7906,0.7867,0.7868,0,0,0,0,0,0,0.8213,0.8198,0.8122,0.8117,0.8153,0.8096,0.8086,0.807,0.8012,0.8003,0.8033,0.803,0.7955,0.7948,0.7941,0.7933,0.7908,0.7906,0.7904,0.7866,0.7867,0.7868,0,0,0,0,0,0,0.8215,0.8207,0.8125,0.8156,0.8145,0.8095,0.8078,0.8069,0.8054,0.8003,0.7993,0.8027,0.7954,0.7945,0.7923,0.7929,0.7904,0.7902,0.7866,0.7867,0.7868,0.7917,0,0,0,0,0,0,0.8219,0.8208,0.8206,0.8157,0.8143,0.8109,0.8078,0.8068,0.805,0.8045,0.7995,0.7986,0.7953,0.7928,0.7921,0.7925,0.79,0.7865,0.7866,0.7867,0.7915,0.792,0.7924,0,0,0,0,0,0.8222,0.8222,0.8206,0.8197,0.814,0.811,0.8102,0.8064,0.8051,0.8048,0.8016,0.7988,0.7931,0.7926,0.7917,0.7921,0.7864,0.7866,0.7867,0.7913,0.7919,0.7924,0,0,0,0,0,0,0.8271,0.8214,0.8196,0.818,0.8151,0.81,0.8096,0.8072,0.8044,0.804,0.7994,0.7983,0.7967,0.7942,0.7938,0.7915,0.7894,0.7894,0.7932,0.7937,0.7942,0.7947,0.7897,0,0,0,0,0,0.828,0.8261,0.8213,0.8203,0.8189,0.8146,0.8131,0.8105,0.8072,0.8058,0.8024,0.7992,0.7967,0.7951,0.7924,0.7912,0.79,0.791,0.7915,0.7919,0.7919,0.7911,0.7915,0.7873,0.7873,0.7873,0,0,0.8298,0.8265,0.8255,0.8212,0.8186,0.8167,0.8135,0.8116,0.8101,0.8055,0.8033,0.8007,0.7968,0.7952,0.7943,0.793,0.7929,0.7921,0.7925,0.7922,0.7913,0.7917,0.7921,0.7874,0.7874,0.7874,0,0,0.832,0.8294,0.8283,0.8259,0.8221,0.8192,0.819,0.8144,0.8126,0.8104,0.807,0.8051,0.8009,0.7983,0.7964,0.7982,0.7955,0.7975,0.7998,0.7991,0.7995,0.7997,0.8004,0.8006,0.7975,0.7975,0.7975,0,0.8346,0.8317,0.828,0.8264,0.8246,0.8207,0.8196,0.8173,0.8128,0.8117,0.8105,0.8052,0.8023,0.8,0.8005,0.7992,0.7987,0.7979,0.7998,0.8,0.8002,0.8007,0.801,0.7978,0.7977,0.7977,0.7977,0,0.8352,0.8332,0.8328,0.8288,0.827,0.8257,0.8218,0.8204,0.8181,0.8154,0.8133,0.8097,0.8064,0.8057,0.8033,0.8032,0.8026,0.8007,0.7984,0.8009,0.8013,0.8015,0.7981,0.7981,0.798,0.7979,0,0,0.8398,0.8341,0.834,0.8323,0.828,0.8264,0.8249,0.8219,0.8208,0.8179,0.8166,0.8133,0.8115,0.8094,0.8068,0.8062,0.8079,0.8043,0.8042,0.8051,0.8076,0.809,0.8093,0.8063,0.8063,0.8063,0.8079,0,0.8413,0.8386,0.8354,0.8337,0.8319,0.8284,0.8271,0.8244,0.8219,0.82,0.8172,0.8149,0.8128,0.8116,0.8109,0.8079,0.8083,0.8077,0.8048,0.8048,0.8058,0.8095,0.8109,0.8125,0.808,0.8081,0.8081,0,0.8426,0.8402,0.8384,0.8346,0.8337,0.8326,0.8297,0.8279,0.8248,0.8231,0.821,0.8182,0.8165,0.8147,0.8123,0.812,0.8107,0.809,0.809,0.8084,0.8064,0.8089,0.813,0.8132,0.8083,0.8083,0.8083,0,0.8462,0.8425,0.841,0.8396,0.835,0.8344,0.8324,0.8292,0.8277,0.8252,0.8241,0.8214,0.8198,0.8178,0.8144,0.8134,0.8124,0.8102,0.8108,0.8109,0.8105,0.8105,0.8143,0.81,0.81,0.8099,0.8099,0,0.8481,0.8471,0.8426,0.8416,0.8405,0.8369,0.8359,0.8336,0.8309,0.8294,0.8262,0.8248,0.8205,0.8187,0.816,0.8145,0.8138,0.8123,0.8116,0.8125,0.8127,0.8114,0.8112,0.81,0.81,0.81,0.81,0,0.8517,0.8486,0.8468,0.8428,0.8418,0.8411,0.8376,0.8366,0.8341,0.8323,0.8317,0.8278,0.8255,0.822,0.8186,0.8168,0.8157,0.8146,0.8168,0.8163,0.8171,0.817,0.82,0.8202,0.8159,0.8159,0.816,0,0.8531,0.8523,0.8483,0.8472,0.8455,0.8437,0.8422,0.8388,0.8373,0.8339,0.8333,0.8308,0.8286,0.8252,0.822,0.8194,0.8181,0.8194,0.8177,0.8187,0.8181,0.8181,0.818,0.8197,0.8198,0.8198,0.8199,0,0.8558,0.8544,0.8524,0.85,0.8484,0.8463,0.844,0.8433,0.8394,0.8379,0.8357,0.8341,0.8308,0.8284,0.8255,0.8234,0.821,0.8205,0.8205,0.8213,0.8226,0.8219,0.8177,0.8204,0.8203,0.8203,0.8202,0.8202,0.8582,0.8574,0.8546,0.8526,0.8506,0.8487,0.8476,0.8451,0.8432,0.8404,0.8385,0.8364,0.8335,0.8294,0.8275,0.8258,0.8247,0.8247,0.8246,0.8247,0.825,0.8231,0.8252,0.8252,0.8252,0.8252,0.8252,0,0.8607,0.8588,0.857,0.8541,0.8526,0.8508,0.8482,0.847,0.8453,0.8429,0.8409,0.8385,0.8362,0.833,0.8305,0.8297,0.8286,0.8292,0.8291,0.8287,0.8261,0.8264,0.8302,0.8302,0.8302,0.8302,0.8302,0.8302,0.8618,0.8604,0.8587,0.8564,0.8545,0.8525,0.8513,0.8495,0.8475,0.845,0.8432,0.8412,0.8385,0.8358,0.8337,0.8328,0.832,0.833,0.8317,0.8293,0.8288,0.8284,0.8286,0.8328,0.8328,0.8344,0.8344,0.8344]}]]